Regional Weather Roundup
Issued by NWS

Home | Current Version | Previous Version | Graphics & Text | Print | Product List | Glossary On
Versions: 1 2 3 4 5 6 7 8 9 10 11 12 13 14 15 16 17 18 19 20 21 22 23 24 25 26 27 28 29 30 31 32 33 34 35 36 37 38 39 40 41 42 43 44 45 46 47 48 49 50
000
ASUS45 KBOU 180010
RWRCO

WEATHER ROUNDUP FOR COLORADO
NATIONAL WEATHER SERVICE DENVER/BOULDER CO
500 PM MST WED JAN 17 2018

NOTE: "FAIR" INDICATES FEW OR NO CLOUDS BELOW 12000 FEET WITH NO
SIGNIFICANT WEATHER AND/OR OBSTRUCTIONS TO VISIBILITY.

COZ001>005-013-030-031-180100-
...NORTHWEST COLORADO...

CITY           SKY/WX    TMP DP  RH WIND       PRES   REMARKS
CRAIG          FAIR      26  11  52 SE3       30.36S
HAYDEN         FAIR     N/A N/A N/A E3        30.37S
MEEKER         FAIR      40  17  39 SW3       30.33S
RABBIT EARS PA FAIR      23  19  86 W7        30.36F WCI  15
STEAMBOAT SPGS FAIR      27  10  49 CALM      30.36S
WALDEN         FAIR      32  10  40 S5        30.34S WCI  27
$$

COZ006>008-011-180100-
...WEST CENTRAL VALLEYS...

CITY           SKY/WX    TMP DP  RH WIND       PRES   REMARKS
GRAND JUNCTION FAIR      45  11  25 W3        30.33S
MONTROSE       FAIR      40   9  28 CALM      30.36R
EAGLE          FAIR      37   3  24 S5        30.38S
RIFLE          FAIR      42   7  23 SW3       30.34S
DELTA          FAIR      44  10  24 SW3       30.35R
NUCLA          FAIR      43  10  26 N3        30.35S
$$

COZ017>023-064>068-180100-
...SOUTHWEST COLORADO...

CITY           SKY/WX    TMP DP  RH WIND       PRES   REMARKS
DURANGO        FAIR      40  19  43 W8        30.28R
CORTEZ         FAIR      40  20  44 SW7       30.30R
PAGOSA SPRINGS FAIR      41  14  33 S3        30.29R
TELLURIDE      FAIR      34  11  38 W5        30.36R WCI  30
WOLF CREEK PAS FAIR      28 -13  16 NW3       30.41R
$$

COZ009-010-012-014-032>034-037-058>063-180100-
...CENTRAL COLORADO...

CITY           SKY/WX    TMP DP  RH WIND       PRES   REMARKS
ASPEN          FAIR      31  10  41 SW6       30.34R WCI  25
BUENA VISTA    FAIR      41   6  23 NW13      30.27R
COPPER MTN     NOT AVBL
BERTHOUD PASS  FAIR      16   5  62 W16       30.36F WCI   0
COTTONWOOD PAS   N/A     41   1  19 CALM      30.33R
GUNNISON       FAIR      30   9  41 S3        30.35S
KREMMLING      FAIR      28   7  40 W3        30.40S
LEADVILLE      FAIR      29  12  49 N9        30.34R WCI  20
MONARCH PASS   FAIR      27   1  33 SW7       30.48R WCI  19
SALIDA         FAIR      43  -8  11 S5        30.34R
SUNLIGHT       FAIR      27  12  54 CALM      30.42S
WILKERSON PASS FAIR      32 -13  14 CALM      30.38S
$$

COZ069>075-180100-
...SAN LUIS VALLEY/SANGRE DE CRISTO MOUNTAINS...

CITY           SKY/WX    TMP DP  RH WIND       PRES   REMARKS
ALAMOSA        FAIR      39   1  20 NE5       30.27S
DEL NORTE      FAIR      36   4  26 NE3       30.28F
LA VETA PASS   FAIR      28  -2  26 N10G18      N/A  WCI  19
SAGUACHE       FAIR      36   9  32 CALM      30.29S
$$

COZ035-036-038>040-180100-
...NORTHERN COLORADO FRONT RANGE...

CITY           SKY/WX    TMP DP  RH WIND       PRES   REMARKS
DENVER INTL AP FAIR      45  11  25 E3        30.27R
DMNS CITY PARK NOT AVBL
AURORA         CLEAR     42  12  29 E5        30.27S
FRONT RANGE AP CLEAR     45  16  31 SE5       30.27S
ERIE MUNI ARPT FAIR      46   2  15 SE3       30.31S
BOULDER MUN AP FAIR      46   5  18 SW5       30.25S
CENTENNIAL     FAIR      45   9  23 SE7       30.27R
BROOMFIELD     CLEAR     48  -2  12 S3        30.27S
FORT COLLINS   FAIR      45  12  26 SE6       30.26S
LONGMONT       FAIR      49   3  15 CALM      30.27S
$$

COZ041-046-047-076>085-087-088-180100-
...PIKES PEAK/PALMER DIVIDE AND SOUTHERN FOOTHILLS...

CITY           SKY/WX    TMP DP  RH WIND       PRES   REMARKS
COLO. SPRINGS  FAIR      43   4  19 E9        30.28R
A. F. ACADEMY  FAIR      38   3  22 N7        30.27R
SCHRIEVER AFB  FAIR      38   3  23 NE7       30.28R
CHEYENNE MTN   FAIR      42  -1  16 S8        30.24R
ELLICOTT         N/A    N/A N/A N/A E10       30.27R
FALCON         FAIR      36   3  24 N5        30.29S
FORT CARSON    FAIR      43   2  18 E6        30.26R
LIMON          FAIR      31   7  36 N3        30.26F
MONUMENT HILL  FAIR      34   9  35 CALM      30.30S
CANON CITY     FAIR      46   1  15 E6        30.25R
WALSENBURG     FAIR      43  10  26 NE5       30.27S
TRINIDAD       FAIR      46   5  18 NE3       30.26R
$$

COZ042>045-048>051-090-091-180100-
...NORTHEAST COLORADO...

CITY           SKY/WX    TMP DP  RH WIND       PRES   REMARKS
GREELEY ARPT   FAIR      46  13  26 SE3       30.27S
AKRON          FAIR      36  18  48 N10       30.25S
BURLINGTON     FAIR      41   7  24 N6        30.25F
WRAY           FAIR      39  18  41 NE3       30.25S
YUMA           FAIR      37  10  32 N7        30.25R
STERLING       FAIR      37  18  44 N7        30.26R
HOLYOKE        FAIR      37  18  44 NW6       30.26R
FORT MORGAN    FAIR      38  13  36 N9        30.26F
$$

COZ086-089-092>099-180100-
...SOUTHEAST COLORADO...

CITY           SKY/WX    TMP DP  RH WIND       PRES   REMARKS
PUEBLO         FAIR      48  11  22 SE3       30.25R
LA JUNTA       FAIR      45  13  27 S5        30.26R
LAMAR          FAIR      41  11  29 SE6       30.25S
SPRINGFIELD      N/A     37  11  34 E7        30.26R
$$



USA.gov is the U.S. government's official web portal to all federal, state and local government web resources and services.